This is the latest recevied weather packets stored in our database for station/object K7LDN-13. If no packets are shown the sender has not sent any weather packets the latest 10 day(s).
| Time | Temp. | Humidity | Pressure | Rain* | Wind** | Luminosity | Snow |
|---|---|---|---|---|---|---|---|
| 1777974386 | 13.33° C | 64% | 1011.7 hPa | 0 mm | - | 0 W/m² | - |
| 1777974082 | 13.33° C | 64% | 1011.7 hPa | 0 mm | - | 0 W/m² | - |
| 1777973779 | 13.33° C | 63% | 1011.7 hPa | 0 mm | - | 0 W/m² | - |
| 1777973476 | 13.33° C | 61% | 1011.5 hPa | 0 mm | - | 0 W/m² | - |
| 1777973173 | 13.33° C | 61% | 1011.7 hPa | 0 mm | - | 0 W/m² | - |
| 1777972872 | 13.33° C | 60% | 1011.4 hPa | 0 mm | - | 0 W/m² | - |
| 1777972568 | 13.33° C | 60% | 1011.5 hPa | 0 mm | - | 0 W/m² | - |
| 1777972266 | 13.33° C | 60% | 1011.6 hPa | 0 mm | - | 0 W/m² | - |
| 1777971964 | 13.89° C | 59% | 1011.6 hPa | 0 mm | - | 0 W/m² | - |
| 1777971662 | 13.33° C | 62% | 1011.8 hPa | 0 mm | - | 0 W/m² | - |
| 1777971359 | 13.33° C | 64% | 1011.6 hPa | 0 mm | - | 0 W/m² | - |
| 1777971057 | 13.33° C | 64% | 1011.6 hPa | 0 mm | - | 0 W/m² | - |
| 1777970755 | 13.33° C | 64% | 1011.9 hPa | 0 mm | - | 0 W/m² | - |
| 1777970453 | 13.33° C | 64% | 1011.8 hPa | 0 mm | - | 0 W/m² | - |
| 1777970150 | 13.33° C | 64% | 1011.8 hPa | 0 mm | - | 0 W/m² | - |
| 1777969846 | 13.33° C | 63% | 1011.8 hPa | 0 mm | - | 0 W/m² | - |
| 1777969542 | 13.33° C | 63% | 1011.9 hPa | 0 mm | - | 0 W/m² | - |
| 1777969239 | 13.33° C | 62% | 1011.9 hPa | 0 mm | - | 0 W/m² | - |
| 1777968936 | 13.33° C | 63% | 1011.8 hPa | 0 mm | - | 0 W/m² | - |
| 1777968633 | 13.33° C | 62% | 1011.9 hPa | 0 mm | - | 0 W/m² | - |
| 1777968329 | 13.33° C | 62% | 1011.8 hPa | 0 mm | - | 0 W/m² | - |
| 1777968026 | 13.33° C | 62% | 1011.9 hPa | 0 mm | - | 0 W/m² | - |
| 1777967722 | 13.33° C | 63% | 1012.2 hPa | 0 mm | - | 0 W/m² | - |
| 1777967419 | 13.33° C | 62% | 1012 hPa | 0 mm | - | 0 W/m² | - |
| 1777967116 | 13.33° C | 62% | 1011.9 hPa | 0 mm | - | 0 W/m² | - |
* Rain latest hour (hover to see other rain measurements)
** Current wind speed in m/s (hover to see current wind gust speed)